North Bend, OR

6:45 AM PST on December 04, 2016 (GMT -0800)
North Bend Municipal

Weather History for KOTH - August, 2014

Change the Weather History Date:

Monday, August 18, 2014

  Actual Average Record
Temperature  
Mean Temperature 59 °F 59 °F  
Max Temperature 63 °F 66 °F 79 °F (1905)
Min Temperature 54 °F 53 °F 41 °F (1913)
Degree Days  
Heating Degree Days 6 6  
Month to date heating degree days 79 108  
Since 1 June heating degree days 422 572  
Since 1 July heating degree days 225 305  
Cooling Degree Days 0 0  
Month to date cooling degree days 0 0  
Year to date cooling degree days 12 0  
Since 1 June cooling degree days 0 0  
Growing Degree Days 8 (Base 50)    
Moisture  
Dew Point 56 °F    
Average Humidity 94    
Maximum Humidity 100    
Minimum Humidity 78    
Precipitation  
Precipitation 0.00 in 0.02 in 0.52 in (1979)
Month to date precipitation 0.01 0.28  
Year to date precipitation 22.44 36.90  
Sea Level Pressure  
Sea Level Pressure 29.96 in    
Wind  
Wind Speed 10 mph (North)    
Max Wind Speed 20 mph    
Max Gust Speed 28 mph    
Visibility 9 miles    
Events      
T = Trace of Precipitation, MM = Missing Value Source: NWS Daily Summary

Daily Weather History Graph

Daily Weather History Graph

Search for Another Location

Airport or City:

Trip Planner

Search our weather history database for the weather conditions in past years. The results will help you decide how hot, cold, wet, or windy it might be!

Date:

Astronomy

Aug. 18, 2014 Rise Set
Actual Time 6:25 AM PDT 8:15 PM PDT
Civil Twilight 5:54 AM PDT 8:45 PM PDT
Nautical Twilight 5:17 AM PDT 9:22 PM PDT
Astronomical Twilight 4:36 AM PDT 10:03 PM PDT
Moon 12:34 AM PDT (8/18) 3:26 PM PDT (8/18)
Length of Visible Light 14h 50m
Length of Day
13h 49m
Last Quarter, 37% of the Moon is Illuminated
Aug 18
Last Quarter
Aug 25
New
Sep 2
First Quarter
Sep 8
Full
Sep 15
Last Quarter

Hourly Weather History & Observations

Time (PDT) Temp. Dew Point Humidity Pressure Visibility Wind Dir Wind Speed Gust Speed Precip Events Conditions
12:15 AM 57.2 °F 55.4 °F 94% 30.04 in 10.0 mi North 9.2 mph - N/A   Clear
12:35 AM 57.2 °F 55.4 °F 94% 30.04 in 10.0 mi North 4.6 mph - N/A   Clear
12:55 AM 57.2 °F 57.2 °F 100% 30.04 in 10.0 mi North 12.7 mph - N/A   Clear
1:15 AM 57.2 °F 57.2 °F 100% 30.03 in 10.0 mi North 12.7 mph - N/A   Scattered Clouds
1:35 AM 55.4 °F 55.4 °F 100% 30.03 in 10.0 mi North 8.1 mph - N/A   Mostly Cloudy
1:55 AM 55.4 °F 55.4 °F 100% 30.03 in 10.0 mi North 8.1 mph - N/A   Scattered Clouds
2:15 AM 55.4 °F 55.4 °F 100% 30.02 in 10.0 mi North 9.2 mph - N/A   Mostly Cloudy
2:35 AM 55.4 °F 55.4 °F 100% 30.02 in 10.0 mi North 5.8 mph - N/A   Overcast
2:55 AM 57.2 °F 57.2 °F 100% 30.01 in 10.0 mi North 13.8 mph 17.3 mph N/A   Overcast
3:15 AM 57.2 °F 57.2 °F 100% 30.01 in 10.0 mi North 10.4 mph - N/A   Overcast
3:35 AM 55.4 °F 55.4 °F 100% 30.02 in 10.0 mi North 11.5 mph - N/A   Overcast
3:55 AM 55.4 °F 55.4 °F 100% 30.02 in 10.0 mi North 9.2 mph - N/A   Overcast
4:15 AM 55.4 °F 55.4 °F 100% 30.02 in 10.0 mi North 5.8 mph - N/A   Mostly Cloudy
4:35 AM 55.4 °F 55.4 °F 100% 30.02 in 10.0 mi North 3.5 mph - N/A   Partly Cloudy
4:55 AM 55.4 °F 55.4 °F 100% 30.01 in 10.0 mi NW 3.5 mph - N/A   Scattered Clouds
5:15 AM 55.4 °F 55.4 °F 100% 30.01 in 10.0 mi North 6.9 mph - N/A   Overcast
5:35 AM 55.4 °F 55.4 °F 100% 30.00 in 10.0 mi North 4.6 mph - N/A   Overcast
5:55 AM 53.6 °F 53.6 °F 100% 30.00 in 9.0 mi NW 4.6 mph - N/A   Overcast
6:15 AM 55.4 °F 55.4 °F 100% 30.00 in 9.0 mi North 8.1 mph - N/A   Overcast
6:35 AM 55.4 °F 55.4 °F 100% 30.00 in 10.0 mi North 13.8 mph - N/A   Overcast
6:55 AM 55.4 °F 55.4 °F 100% 30.00 in 10.0 mi NNE 13.8 mph - N/A   Overcast
7:15 AM 55.4 °F 55.4 °F 100% 30.00 in 10.0 mi North 12.7 mph - N/A   Overcast
7:35 AM 55.4 °F 55.4 °F 100% 30.00 in 10.0 mi North 11.5 mph - N/A   Overcast
7:55 AM 55.4 °F 55.4 °F 100% 30.01 in 10.0 mi North 10.4 mph - N/A   Overcast
8:15 AM 55.4 °F 55.4 °F 100% 30.00 in 10.0 mi North 10.4 mph - N/A   Overcast
8:35 AM 55.4 °F 55.4 °F 100% 30.00 in 10.0 mi North 8.1 mph - N/A   Overcast
8:55 AM 55.4 °F 55.4 °F 100% 30.00 in 10.0 mi North 6.9 mph - N/A   Overcast
9:15 AM 55.4 °F 55.4 °F 100% 29.99 in 10.0 mi NNW 3.5 mph - N/A   Overcast
9:35 AM 55.4 °F 55.4 °F 100% 29.99 in 10.0 mi North 3.5 mph - N/A   Overcast
9:55 AM 57.2 °F 57.2 °F 100% 29.98 in 10.0 mi NNW 3.5 mph - N/A   Overcast
10:15 AM 57.2 °F 57.2 °F 100% 29.98 in 10.0 mi NNW 6.9 mph - N/A   Overcast
10:35 AM 59.0 °F 57.2 °F 94% 29.98 in 10.0 mi NNE 5.8 mph - N/A   Overcast
10:55 AM 59.0 °F 55.4 °F 88% 29.97 in 10.0 mi NNW 3.5 mph - N/A   Mostly Cloudy
11:15 AM 60.8 °F 55.4 °F 82% 29.97 in 10.0 mi NNW 4.6 mph - N/A   Scattered Clouds
11:35 AM 62.6 °F 57.2 °F 82% 29.96 in 10.0 mi NNW 9.2 mph - N/A   Scattered Clouds
11:55 AM 62.6 °F 55.4 °F 77% 29.96 in 10.0 mi NNW 11.5 mph - N/A   Scattered Clouds
12:15 PM 60.8 °F 55.4 °F 82% 29.96 in 10.0 mi North 10.4 mph - N/A   Clear
12:35 PM 62.6 °F 55.4 °F 77% 29.95 in 10.0 mi North 16.1 mph - N/A   Clear
12:55 PM 60.8 °F 55.4 °F 82% 29.95 in 10.0 mi North 13.8 mph - N/A   Clear
1:15 PM 62.6 °F 55.4 °F 77% 29.94 in 10.0 mi North 17.3 mph 20.7 mph N/A   Clear
1:35 PM 60.8 °F 55.4 °F 82% 29.93 in 10.0 mi North 21.9 mph 27.6 mph N/A   Clear
1:55 PM 60.8 °F 55.4 °F 82% 29.93 in 10.0 mi North 19.6 mph 27.6 mph N/A   Clear
2:15 PM 60.8 °F 55.4 °F 82% 29.93 in 10.0 mi North 19.6 mph 26.5 mph N/A   Clear
2:35 PM 60.8 °F 55.4 °F 82% 29.93 in 10.0 mi North 16.1 mph 23.0 mph N/A   Scattered Clouds
2:55 PM 60.8 °F 55.4 °F 82% 29.93 in 10.0 mi North 13.8 mph 23.0 mph N/A   Overcast
3:15 PM 60.8 °F 57.2 °F 88% 29.92 in 10.0 mi North 16.1 mph 20.7 mph N/A   Mostly Cloudy
3:35 PM 62.6 °F 57.2 °F 82% 29.91 in 10.0 mi North 17.3 mph 21.9 mph N/A   Scattered Clouds
3:55 PM 60.8 °F 57.2 °F 88% 29.91 in 10.0 mi North 17.3 mph 24.2 mph N/A   Scattered Clouds
4:15 PM 60.8 °F 57.2 °F 88% 29.90 in 10.0 mi North 20.7 mph 26.5 mph N/A   Clear
4:35 PM 60.8 °F 57.2 °F 88% 29.90 in 10.0 mi North 16.1 mph 24.2 mph N/A   Clear
4:55 PM 60.8 °F 57.2 °F 88% 29.90 in 10.0 mi North 17.3 mph 21.9 mph N/A   Mostly Cloudy
5:15 PM 60.8 °F 59.0 °F 94% 29.89 in 10.0 mi North 18.4 mph 26.5 mph N/A   Overcast
5:35 PM 60.8 °F 57.2 °F 88% 29.90 in 10.0 mi NNW 13.8 mph 21.9 mph N/A   Mostly Cloudy
5:55 PM 60.8 °F 57.2 °F 88% 29.90 in 10.0 mi NNW 13.8 mph 17.3 mph N/A   Mostly Cloudy
6:15 PM 60.8 °F 57.2 °F 88% 29.90 in 10.0 mi NNW 15.0 mph 20.7 mph N/A   Scattered Clouds
6:35 PM 60.8 °F 57.2 °F 88% 29.90 in 10.0 mi North 12.7 mph 19.6 mph N/A   Scattered Clouds
6:55 PM 59.0 °F 59.0 °F 100% 29.90 in 10.0 mi North 12.7 mph - N/A   Overcast
7:15 PM 57.2 °F 57.2 °F 100% 29.91 in 5.0 mi North 8.1 mph - N/A   Overcast
7:35 PM 57.2 °F 57.2 °F 100% 29.90 in 7.0 mi North 8.1 mph - N/A   Overcast
7:55 PM 57.2 °F 57.2 °F 100% 29.90 in 5.0 mi North 9.2 mph - N/A   Overcast
8:15 PM 57.2 °F 57.2 °F 100% 29.91 in 7.0 mi North 6.9 mph - N/A   Overcast
8:35 PM 59.0 °F 59.0 °F 100% 29.92 in 10.0 mi North 8.1 mph - N/A   Overcast
9:15 PM 57.2 °F 57.2 °F 100% 29.93 in 2.0 mi Calm Calm - N/A   Overcast
9:35 PM 57.2 °F 57.2 °F 100% 29.93 in 3.0 mi NNW 4.6 mph - N/A   Overcast
9:55 PM 57.2 °F 57.2 °F 100% 29.92 in 3.0 mi NNW 4.6 mph - N/A   Overcast
10:15 PM 57.2 °F 57.2 °F 100% 29.91 in 9.0 mi North 4.6 mph - N/A   Overcast
10:35 PM 57.2 °F 57.2 °F 100% 29.92 in 10.0 mi Calm Calm - N/A   Overcast
10:55 PM 57.2 °F 57.2 °F 100% 29.91 in 10.0 mi NW 11.5 mph - N/A   Overcast
11:15 PM 57.2 °F 57.2 °F 100% 29.92 in 10.0 mi North 8.1 mph - N/A   Overcast
11:35 PM 57.2 °F 57.2 °F 100% 29.92 in 4.0 mi North 6.9 mph - N/A   Overcast
11:55 PM 57.2 °F 57.2 °F 100% 29.92 in 3.0 mi NNW 4.6 mph - N/A   Overcast